Hourly Data Report for October 17, 2016

All times are specified in Local Standard Time (LST). Add 1 hour to adjust for Daylight Saving Time where and when it is observed.

TORONTO INTL A
ONTARIO

43°40'36.000" N
79°37'50.000" W
173.40 m
6158731
71624
YYZ

Download Data

Hourly Data (October 2016)
Hourly Data Report for October 17, 2016
Temp Definition
°C
Dew Point Temp Definition
°C
Rel Hum Definition
%
Wind Dir Definition
10's deg

Wind Spd Definition
km/h
Visibility Definition
km
Stn Press Definition
kPa
Hmdx Definition


Wind Chill Definition


Weather Definition


TIME
00:00 Legend Double Dagger 17.7 15.5 87 16 6 24.1 99.29     LegendNANA
01:00 Legend Double Dagger 17.6 16.0 90 18 7 24.1 99.31     Cloudy
02:00 Legend Double Dagger 17.1 15.8 92 33 3 24.1 99.30     LegendNANA
03:00 Legend Double Dagger 16.8 15.5 92 36 7 24.1 99.23     LegendNANA
04:00 Legend Double Dagger 16.5 15.4 93 3 9 14.5 99.21     Cloudy
05:00 Legend Double Dagger 17.0 15.9 93 8 9 12.9 99.17     LegendNANA
06:00 Legend Double Dagger 17.0 15.9 93 12 9 12.9 99.17     LegendNANA
07:00 Legend Double Dagger 16.7 16.1 96 11 8 2.0 99.16     Fog
08:00 Legend Double Dagger 16.8 16.3 97 10 10 0.8 99.18     Drizzle,Fog
09:00 Legend Double Dagger 16.2 15.7 97 10 15 0.4 99.17     Drizzle,Fog
10:00 Legend Double Dagger 16.1 15.6 97 10 14 1.2 99.09     Drizzle,Fog
11:00 Legend Double Dagger 16.3 15.8 97 10 17 1.6 99.01     Drizzle,Fog
12:00 Legend Double Dagger 16.5 16.0 97 11 10 1.2 98.98     Drizzle,Fog
13:00 Legend Double Dagger 16.8 16.3 97 11 18 0.2 98.76     Drizzle,Fog
14:00 Legend Double Dagger 17.7 17.4 98 11 16 1.6 98.73     Fog
15:00 Legend Double Dagger 18.8 18.0 95 11 18 9.7 98.68     Fog
16:00 Legend Double Dagger 21.1 18.0 82 15 11 12.9 98.65 27   Mostly Cloudy
17:00 Legend Double Dagger 21.1 17.8 81 5 14 19.3 98.71 27   LegendNANA
18:00 Legend Double Dagger 19.1 17.5 90 12 17 24.1 98.65     LegendNANA
19:00 Legend Double Dagger 19.2 17.0 87 13 12 24.1 98.62     Mostly Cloudy
20:00 Legend Double Dagger 19.5 17.1 86 13 10 24.1 98.58     LegendNANA
21:00 Legend Double Dagger 19.2 17.2 88 12 8 24.1 98.54     LegendNANA
22:00 Legend Double Dagger 19.0 17.2 89 13 10 24.1 98.56     Mostly Cloudy
23:00 Legend Double Dagger 18.9 16.7 87 11 12 24.1 98.53     LegendNANA

Notes on Data Quality.

Legend

  • E = Estimated
  • M = Missing
  • NA = Not Available
  • ‡ = Partner data that is not subject to review by the National Climate Archives
Date modified: